Location: Wallasey
(53.4265°N, 3.0662°W)
Time: 20:30:19
(UTC+00:00)

XW-2B - Pass Details

Date: 14 October 2019
Orbit: 508 x 528 km, 97.5° (Epoch: 20 November)

Event Time Altitude Azimuth Distance (km) Brightness Sun altitude
Rises 06:57:17 0° 18° (NNE) 2,640 ? -6.6°
Reaches altitude 10° 06:59:28 10° 26° (NNE) 1,745 ? -6.3°
Maximum altitude 07:03:04 42° 98° (E) 736 ? -5.8°
Drops below altitude 10° 07:06:37 10° 171° (S) 1,725 ? -5.2°
Sets 07:08:46 0° 179° (S) 2,604 ? -4.9°
